Location: Hawks Ness
(60.2333°N, 1.1667°W)
Time: 21:08:09
(UTC+00:00)

Cosmos 1726 - Pass Details

Date: 27 January 2020
Orbit: 483 x 500 km, 82.5° (Epoch: 23 February)

Event Time Altitude Azimuth Distance (km) Brightness Sun altitude
Rises 16:50:23 0° 337° (NNW) 2,566 5.7 -5.8°
Reaches altitude 10° 16:52:55 10° 320° (NW) 1,680 5.0 -6.0°
Maximum altitude 16:55:33 19° 274° (W) 1,221 5.0 -6.3°
Drops below altitude 10° 16:58:10 10° 228° (SW) 1,674 6.3 -6.6°
Sets 17:00:41 0° 210° (SSW) 2,551 6.8 -6.9°
